Погода в Заре

Украина / Одесская область     45°59′30″N   29°41′45″E
темп.,
°C
ветер,
м/с
пор.,
м/с
влажн.,
%
обл.,
%
осадки,
мм/ч
давл.,
гПа
погр.,
м
2 марта, вт
вт223:00+1с388594 0.0 1033301
02:000с378488 0.0 1033162
05:000ссз238410 0.0 103237
08:00+2сз237349 0.0 1033226
11:00+6зсз445887 0.0 10321053
14:00+7з566186 0.0 1030971
17:00+8з595615 0.0 1027625
20:00+6з5116539 0.0 1026217
3 марта, ср
ср323:00+5зсз512730 0.0 1026313
02:00+5ссз614790 0.0 1027506
05:00+4с5118230 0.0 1028563
08:00+4с586765 0.0 1030962
11:00+8ссз575518 0.0 10301123
14:00+10ссз45419 0.0 10301296
17:00+9ссз35430 0.0 10281213
20:00+6ссв115447 0.0 102922
4 марта, чт
чт423:00+5ю22580 0.0 102822
02:00+3ююз34820 0.0 102682
05:00+3ююз46880 0.0 1024113
08:00+5ююз510800 0.0 1022294
11:00+11юз710560 0.0 1020768
14:00+14юз710470 0.0 10171089
17:00+13юз495112 0.0 1015524
20:00+8ююз597528 0.0 1015198
5 марта, пт
пт523:00+7ююз49808 0.0 1014177
02:00+6юз338211 0.0 101339
05:00+5ююз348560 0.0 101253
08:00+6юз347579 0.0 1012124
11:00+12юз455299 0.0 1011461
14:00+15зюз453982 0.0 1010912
17:00+15з354336 0.0 1010155
20:00+10юз345118 0.0 101175
6 марта, сб
сб623:00+8св236447 0.0 101242
02:00+6с6118573 0.0 1014434
05:00+6с51089100 0.0 1015513
08:00+1с81294100 0.1 1019595
11:00+4с81054100 0.1 10211191
14:00+5с8940100 0.1 10231570
17:00+4с6942100 0.1 10241696
20:00+1с364765 0.1 1027204